{"data":{"norad_id":58638,"intl_designator":"2023-203W","name":"STARLINK-31078","alt_names":[],"object_type":"PAYLOAD","status":"ACTIVE","operator":null,"country":"US","launch_date":"2023-12-23","launch_site_code":"AFETR","launch_vehicle":null,"mission":null,"orbit_class":"UNKNOWN","rcs_meters":null,"size_class":null,"mass_kg":null,"dimensions":null,"purposes":["comms"],"wikipedia_slug":null,"has_3d_model":false,"image_url":null,"decayed_at":null,"tle_current":{"epoch":"2026-05-24T23:02:07.488096Z","epoch_age_seconds":72388,"freshness":"FRESH","line1":"1 58638U 23203W   26144.95980889  .00000811  00000+0  38997-4 0  9992","line2":"2 58638  43.0050 356.5584 0000941 274.3461  85.7283 15.27578672135227","mean_motion":15.27578672,"eccentricity":9.41e-5,"inclination_deg":43.005,"raan_deg":356.5584,"arg_perigee_deg":274.3461,"mean_anomaly_deg":85.7283,"bstar":3.8997e-5,"rev_number":13522,"period_min":94.266830664418,"perigee_km":482.40743456645,"apogee_km":483.69871053811,"semimajor_km":6861.1900725523,"source":"CELESTRAK","updated_at":"2026-05-25T13:38:18.709298Z"}}}